Regional Weather Roundup
Issued by NWS Bismarck, ND

Home | Current Version | Previous Version | Text Only | Print | Product List | Glossary On
Versions: 1 2 3 4 5 6 7 8 9 10 11 12 13 14 15 16 17 18 19 20 21 22 23 24 25 26 27 28 29 30 31 32 33 34 35 36 37 38 39 40 41 42 43 44 45 46 47 48 49 50
000
ASUS43 KBIS 300210
RWRBIS

NWR BROADCAST TEXT
NATIONAL WEATHER SERVICE BISMARCK ND
900 PM CDT SAT APR 29 2017

NOTE: "FAIR" INDICATES FEW OR NO CLOUDS BELOW 12,000 FEET WITH NO
SIGNIFICANT WEATHER AND/OR OBSTRUCTIONS TO VISIBILITY.


CITY           SKY/WX    TMP DP  RH WIND       PRES   REMARKS
WILLISTON      FAIR      57  31  37 S5        30.12F
MINOT          FAIR      57  26  30 SW5       30.13F
MINOT AFB      FAIR      50  33  50 W6        30.12F
BISMARCK       FAIR      53  26  35 E7        30.16F
DICKINSON      FAIR      49  17  28 S7        30.12F
GARRISON         N/A     51  23  33 S3        30.14F
HETTINGER ARPT FAIR      50  19  29 S6        30.16F
JAMESTOWN      FAIR      50  30  46 E6        30.18F
HAZEN          FAIR      50  25  37 CALM      30.16S
LINTON         FAIR      50  27  40 SE7       30.18S
MANDAN         FAIR      54  19  26 SE5       30.16F
STANLEY        FAIR      52  32  46 S8        30.16F
TIOGA          FAIR      52  30  43 S10       30.14F
WATFORD CITY   FAIR      52  34  50 S3        30.12F
$$

CITY           SKY/WX    TMP DP  RH WIND       PRES   REMARKS
GRAND FORKS    MOCLDY    54  30  40 E7        30.21S
GRAND FORKS AF FAIR      53  28  39 SE6       30.21F
DEVILS LAKE    FAIR      50  32  50 SE7       30.18F
FARGO          FAIR      51  23  33 NE5       30.21S
CAVALIER       FAIR      52  28  40 SE6       30.19F
GRAFTON        FAIR      50  39  66 VRB7      30.22F
GWINNER        CLEAR     48  32  53 MISG      30.21R
LANGDON        FAIR      45  25  45 S9        30.18F
ROLLA          FAIR      52  25  35 S8        30.15F
$$

CITY           SKY/WX    TMP DP  RH WIND       PRES   REMARKS
ABERDEEN       FAIR      46  22  38 E7        30.20S
MOBRIDGE       FAIR      52  21  29 E10       30.15S
BUFFALO          N/A     50  22  33 E9        30.09F
RAPID CITY     FAIR      42  23  46 NE7       30.17R
GLASGOW        MOCLDY    52  33  48 S6        30.09F
SIDNEY         FAIR      55  31  39 S3        30.12F
WOLF POINT     FAIR      56  30  37 SW3       30.10F
GLENDIVE       FAIR      55  29  36 S5        30.13F
MILES CITY     FAIR      55  25  31 S3        30.12F
BAKER          FAIR      46  29  51 S6        30.14F
$$

CITY           SKY/WX    TMP DP  RH WIND       PRES   REMARKS
BILLINGS       FAIR      53  26  35 SW5       30.10F
GREAT FALLS    FAIR      47  29  49 W6        30.04R
REGINA         PTCLDY    50  27  40 S7        30.07F
ESTEVAN        MOCLDY    55  30  38 NE3       30.12S
$$





USA.gov is the U.S. government's official web portal to all federal, state and local government web resources and services.